Sitka, Alaska, United States (99835)
Lat: 57.05N, Lon: 135.33W
Wx Zone: AKZ023
Local Info
Past Weather Observations for Today

NOTE: This archive is for the closest National Weather Service station to Sitka. Information may differ from the station used for current weather conditions.

Click here for Long-term Archive

Time Weather Temperature Dewpoint Humidity Pressure Winds Precip Visibility
14:53
Overcast
Light Rain
43°F / 6°C 37°F / 3°C 81% 29.15 in
(987 mb)
E 6.9 mph
(E 11 kph)
0.02 in
(0.51 mm)
7SM
13:53
Mostly Cloudy
Rain
43°F / 6°C 39°F / 4°C 87% 29.15 in
(987 mb)
ESE 9.2 mph
(ESE 15 kph)
0.02 in
(0.51 mm)
6SM
13:24
Overcast
Light Rain
43°F / 6°C 39°F / 4°C 87% 29.15 in
(987 mb)
E 5.8 mph
(E 9 kph)
0.01 in
(0.25 mm)
9SM
12:53
Mostly Cloudy
Fog And Mist
43°F / 6°C 39°F / 4°C 87% 29.15 in
(987 mb)
S 6.9 mph
(S 11 kph)
0.05 in
(1.27 mm)
6SM
11:53
Overcast
Light Rain
45°F / 7°C 39°F / 4°C 81% 29.15 in
(987 mb)
S 8.1 mph
(S 13 kph)
0.02 in
(0.51 mm)
4SM
11:41
Overcast
Light Rain
45°F / 7°C 39°F / 4°C 81% 29.15 in
(987 mb)
SW 19.6 mph
(SW 32 kph)
0.01 in
(0.25 mm)
8SM
11:22
Overcast
45°F / 7°C 37°F / 3°C 76% 29.12 in
(986 mb)
SE 10.4 mph
(SE 17 kph)
- 10SM
11:08
Overcast
45°F / 7°C 37°F / 3°C 76% 29.12 in
(986 mb)
ESE 8.1 mph
(ESE 13 kph)
- 10SM
11:00
Mostly Cloudy
45°F / 7°C 39°F / 4°C 81% 29.12 in
(986 mb)
ESE 9.2 mph
(ESE 15 kph)
- 10SM
10:53
Overcast
45°F / 7°C 39°F / 4°C 81% 29.12 in
(986 mb)
ESE 10.4 mph
(ESE 17 kph)
0.01 in
(0.25 mm)
10SM
09:53
Overcast
Light Rain
45°F / 7°C 43°F / 6°C 93% 29.12 in
(986 mb)
SW 16.1 mph
(SW 26 kph)
0.04 in
(1.02 mm)
6SM
09:13
Overcast
Light Rain
45°F / 7°C 43°F / 6°C 93% 29.09 in
(985 mb)
S 13.8 mph
(S 22 kph)
0.03 in
(0.76 mm)
6SM
08:53
Overcast
Light Rain
45°F / 7°C 39°F / 4°C 81% 29.06 in
(984 mb)
SE 17.3 mph
(SE 28 kph)
0.11 in
(2.79 mm)
5SM
08:49
Overcast
Rain
45°F / 7°C 39°F / 4°C 81% 29.06 in
(984 mb)
SE 17.3 mph
(SE 28 kph)
0.11 in
(2.79 mm)
5SM
08:48
Overcast
Rain
45°F / 7°C 39°F / 4°C 81% 29.06 in
(984 mb)
SE 20.7 mph
(SE 33 kph)
0.10 in
(2.54 mm)
5SM
08:42
Overcast
Heavy Rain
45°F / 7°C 39°F / 4°C 81% 29.06 in
(984 mb)
SE 17.3 mph
(SE 28 kph)
0.07 in
(1.78 mm)
1 3/4SM
07:53
Mostly Cloudy
46°F / 8°C 36°F / 2°C 66% 29.03 in
(983 mb)
ESE 20.7 mph
(ESE 33 kph)
- 10SM
06:53
Clear
48°F / 9°C 34°F / 1°C 58% 29 in
(982 mb)
SE 15 mph
(SE 24 kph)
- 10SM
05:53
Overcast
46°F / 8°C 36°F / 2°C 66% 29.03 in
(983 mb)
SE 13.8 mph
(SE 22 kph)
0.00 in
(0.00 mm)
10SM
04:53
Overcast
46°F / 8°C 36°F / 2°C 66% 29.06 in
(984 mb)
ESE 12.7 mph
(ESE 20 kph)
0.00 in
(0.00 mm)
10SM
03:53
Overcast
48°F / 9°C 36°F / 2°C 62% 29.09 in
(985 mb)
ESE 13.8 mph
(ESE 22 kph)
- 10SM
02:53
Overcast
48°F / 9°C 34°F / 1°C 58% 29.15 in
(987 mb)
SE 19.6 mph
(SE 32 kph)
0.00 in
(0.00 mm)
10SM
01:53
Overcast
Light Rain
46°F / 8°C 36°F / 2°C 66% 29.18 in
(988 mb)
ESE 12.7 mph
(ESE 20 kph)
0.00 in
(0.00 mm)
10SM
00:53
Overcast
46°F / 8°C 37°F / 3°C 71% 29.24 in
(990 mb)
SE 11.5 mph
(SE 19 kph)
- 10SM
Time Weather Temperature Dewpoint Humidity Pressure Winds Precip Visibility


Weather for websites

WeatherForYou.com, LLC is not responsible for any damages or problems caused by this service. Current weather conditions are obtained from the closest station including government and personal stations which may have varying degrees of accuracy. Weather forecasts are derived from the NOAA NDFD. Like all things, this site belongs to Jesus Christ... He just trusts me to maintain it. If you have any questions or comments email webmaster@weatherforyou.com

Copyright © 2014, WeatherForYou.com LLC. All rights reserved.